Regional Weather Roundup
Issued by NWS

Home | Current Version | Previous Version | Graphics & Text | Print | Product List | Glossary On
Versions: 1 2 3 4 5 6 7 8 9 10 11 12 13 14 15 16 17 18 19 20 21 22 23 24 25 26 27 28 29 30 31 32 33 34 35 36 37 38 39 40 41 42 43 44 45 46 47 48 49 50
557
ASUS45 KABQ 102101
RWRNM
NEW MEXICO REGIONAL WEATHER ROUNDUP
NATIONAL WEATHER SERVICE ALBUQUERQUE NM
200 PM MST WED FEB 10 2016

NOTE: "FAIR" MEANS FEW OR NO CLOUDS BELOW 12,000 FEET AGL WITH NO
       SIGNIFICANT WEATHER OR OBSTRUCTIONS TO VISION.

      THIS PRODUCT IS RELEASED AS TWO VERSIONS.  ONE VERSION NEAR
      THE TOP OF THE HOUR CONTAINING PRELIMINARY DATA FROM ALBUQUERQUE
      AND OTHER STATIONS.  A FINAL VERSION WITH ADDITIONAL DATA IS
      ISSUED ABOUT 10 MINUTES AFTER THE HOUR.

NMZ501-503-504-510>518-102200-
NORTHWEST PLATEAU/NORTHCENTRAL MOUNTAINS

CITY           SKY/WX    TMP DP  RH WIND       PRES   REMARKS
FARMINGTON     SUNNY     52  23  32 W7        30.36F
SANTA FE       SUNNY     58  17  20 W8        30.33F
TAOS           SUNNY     52  18  25 CALM      30.36F

$$
NMZ402-403-502-505>509-102200-
WESTCENTRAL MOUNTAINS/SOUTHWEST MOUNTAINS

CITY           SKY/WX    TMP DP  RH WIND       PRES   REMARKS
GALLUP         SUNNY     59  20  22 W10       30.39F
GRANTS         SUNNY     63  13  14 NW8G18    30.37F
SILVER CITY      N/A     64  14  14 SW7       30.35F

$$
NMZ407-409-411-412-102200-
SOUTHERN DESERTS

CITY           SKY/WX    TMP DP  RH WIND       PRES   REMARKS
DEMING         SUNNY     68  15  13 SW8       30.30F
ALAMOGORDO     SUNNY     66  18  15 W6        30.30F
T OR C         SUNNY     65  17  15 S6        30.30F

$$
NMZ519>523-102200-
CENTRAL VALLEYS/CENTRAL HIGHLANDS

CITY           SKY/WX    TMP DP  RH WIND       PRES   REMARKS
ALBUQUERQUE    SUNNY     58  17  20 CALM      30.34F
DOUBLE EAGLE   SUNNY     59  21  23 SE6       30.35F
MORIARTY ARPT  FAIR      62  10  13 W10       30.33F
CLINES CORNERS SUNNY     56  18  22 NW16      30.32F
BELEN          FAIR      60  17  18 CALM      30.33F
SOCORRO        NOT AVBL

$$
NMZ524>526-539-540-102200-
SOUTHCENTRAL MOUNTAINS

CITY           SKY/WX    TMP DP  RH WIND       PRES   REMARKS
RUIDOSO        SUNNY     61  14  16 NW16G24   30.35F

$$
NMZ527>531-102200-
NORTHEAST HIGHLANDS/NORTHEAST PLAINS

CITY           SKY/WX    TMP DP  RH WIND       PRES   REMARKS
LAS VEGAS      SUNNY     65   5   9 SW5       30.26F
RATON          SUNNY     67   5   8 VRB7      30.19F
CLAYTON        SUNNY     77   2   5 VRB3      30.12F

$$
NMZ532>537-102200-
EASTCENTRAL PLAINS

CITY           SKY/WX    TMP DP  RH WIND       PRES   REMARKS
TUCUMCARI      SUNNY     76  13   9 W8        30.12F
CANNON AFB     NOT AVBL
CLOVIS AIRPORT SUNNY     73  19  13 W21       30.18F

$$
NMZ028-029-538-102200-
SOUTHEAST PLAINS

CITY           SKY/WX    TMP DP  RH WIND       PRES   REMARKS
ROSWELL        SUNNY     71  21  15 S8        30.20F
ARTESIA        SUNNY     73  25  16 SE5G12    30.20F
CARLSBAD       SUNNY     72  22  15 SE6       30.21F
HOBBS          SUNNY     72  18  13 SW14      30.24F


$$




USA.gov is the U.S. government's official web portal to all federal, state and local government web resources and services.